Regional Weather Roundup
Issued by NWS

Home | Current Version | Previous Version | Text Only | Print | Product List | Glossary On
Versions: 1 2 3 4 5 6 7 8 9 10 11 12 13 14 15 16 17 18 19 20 21 22 23 24 25 26 27 28 29 30 31 32 33 34 35 36 37 38 39 40 41 42 43 44 45 46 47 48 49 50
000
ASUS43 KLOT 302008
RWRIL

ILLINOIS REGIONAL WEATHER ROUNDUP
NATIONAL WEATHER SERVICE CHICAGO/ROMEOVILLE IL
300 PM CDT SAT JUL 30 2016

NOTE: "FAIR" INDICATES FEW OR NO CLOUDS BELOW 12,000 FEET WITH NO
SIGNIFICANT WEATHER AND/OR OBSTRUCTIONS TO VISIBILITY.

* THESE STATIONS ARE NOT UNDER NWS QUALITY CONTROL. THEY ALSO MAY NOT
  REPORT WEATHER SUCH AS PRECIPITATION OR FOG.

ILZ001-002-007-009-015-016-024-302100-
NORTHWEST ILLINOIS

CITY           SKY/WX    TMP DP  RH WIND       PRES   REMARKS
MOLINE         PTSUNNY   80  64  58 NE9       29.97F HX  82
STERLING*      MOSUNNY   80  68  66 E9        29.98F HX  83
SAVANNA*       MOSUNNY   80  66  61 NE8       29.98F HX  82
$$

ILZ003-004-008-010-011-017-018-302100-
NORTH CENTRAL ILLINOIS

CITY           SKY/WX    TMP DP  RH WIND       PRES   REMARKS
ROCKFORD       PTSUNNY   79  65  62 E9        30.00F HX  81
FREEPORT*      MOSUNNY   78  64  62 E6        30.01F HX  80
ROCHELLE*      PTSUNNY   78  68  71 E9        29.99F HX  80
DE KALB*       MOSUNNY   78  68  71 NE12      30.00F HX  80
$$

ILZ005-006-012>014-019>023-302100-
NORTHEAST ILLINOIS

CITY           SKY/WX    TMP DP  RH WIND       PRES   REMARKS
CHICAGO-OHARE  PTSUNNY   76  64  66 NE12      29.98S
CHICAGO-MIDWAY PTSUNNY   77  65  66 NE13      29.98R
AURORA         MOSUNNY   80  67  64 NE12      29.98F HX  82
LANSING*       CLOUDY    75  65  71 N3        29.98R
JOLIET*        CLOUDY    80  69  69 NE12      29.97S HX  83
WAUKEGAN       CLOUDY    73  64  73 NE10      30.00S
DUPAGE AIRPORT MOSUNNY   79  65  62 NE10      29.98F HX  81
KANKAKEE*      LGT RAIN  75  70  83 S6        29.97R
WHEELING       PTSUNNY   76  65  68 NE10      30.00F
MORRIS*        PTSUNNY   77  69  75 NE3       29.96S
ROMEOVILLE*    CLOUDY    77  65  65 NE7       29.98S
NORTHERLY ISL    N/A     76  67  73 N9          N/A
$$

LMZ740>746-302100-
SOUTHERN LAKE MICHIGAN

STATION/POSITION SKY/WX   TEMP    WIND        PRES    VSBY  WAVE
                          AIR SEA DIR/SP/G                  HT/PER
                          (F)     (DEG/KT/KT) (MB)    (MI)  (FT/S)
SOUTHERN BUOY              69 73   50/  6/  8 1015.4F         2/ 4
WILMETTE HARBOR            71 71   50/ 10/ 12   N/A           3/ 5
HARRISON CRIB              72      20/ 11/ 11   N/A
BURNHAM HARBOR             75     360/  7/ 12   N/A
CALUMET HARBOR             73      10/ 10/ 12 1014.8
BURNS HARBOR               71      30/ 10/ 12 1015.6S
MICHIGAN CITY              71     340/ 13/ 13   N/A
MICHIGAN CITY 6N           71 72  360/ 10/ 14   N/A           2/ 5
ST. JOSEPH                 70 72  360/ 12/ 14 1014.8F         2/ 2
$$

ILZ025>027-034>036-040-047-049-050-058-095>099-302100-
WEST-CENTRAL ILLINOIS

CITY           SKY/WX    TMP DP  RH WIND       PRES   REMARKS
QUINCY         SUNNY     80  68  66 SW6       29.99F HX  83
GALESBURG*     CLOUDY    78  68  72 NW6       29.98S HX  80
MACOMB*        PTSUNNY   77  68  73 W7        30.01S
JACKSONVILLE*  PTSUNNY   81  69  67 W8        29.98F HX  84
PITTSFIELD*    MOSUNNY   80  65  58 W6        30.00F HX  82
$$

ILZ028>032-037-038-041>044-048-051>054-059>061-302100-
CENTRAL ILLINOIS

CITY           SKY/WX    TMP DP  RH WIND       PRES   REMARKS
PONTIAC        HVY RAIN  72  72 100 N5        29.99R
BLOOMINGTON    PTSUNNY   81  70  69 W9        29.97F HX  84
DECATUR        PTSUNNY   81  65  58 W7        29.97S HX  83
PEORIA         PTSUNNY   81  68  64 VRB7      29.96F HX  84
LACON*         CLOUDY    82  69  66 NW8       29.95F HX  85
LINCOLN*       PTSUNNY   81  69  66 CALM      29.97S HX  83
SPRINGFIELD    MOSUNNY   82  67  60 W8        29.98F HX  84
TAYLORVILLE    SUNNY     80  67  65 MISG      29.98F HX  82
$$

ILZ033-039-045-046-055>057-062-063-302100-
EAST-CENTRAL ILLINOIS

CITY           SKY/WX    TMP DP  RH WIND       PRES   REMARKS
CHAMPAIGN      MOSUNNY   80  67  64 SW7       29.97F HX  82
MATTOON        PTSUNNY   79  66  64 W12       29.97S HX  81
PARIS*         CLOUDY    79  69  71 W7        29.97S HX  81
$$

ILZ079-100>102-302100-
SOUTHWEST ILLINOIS

CITY           SKY/WX    TMP DP  RH WIND       PRES   REMARKS
ALTON          PTSUNNY   79  66  65 NW12      29.98F HX  81
BELLEVILLE     MOSUNNY   85  67  55 VRB3      29.96F HX  88
CAHOKIA*       MOSUNNY   88  62  41 W8        29.96F HX  88
SPARTA*        MOSUNNY   84  67  57 W8        29.99F HX  86
$$

ILZ064>066-069>071-074>076-080>082-084>086-088>090-092>094-302100-
SOUTH-CENTRAL ILLINOIS

CITY           SKY/WX    TMP DP  RH WIND       PRES   REMARKS
CARBONDALE     MOSUNNY   86  68  54 NW9       29.97F HX  89
CAIRO*         SUNNY     83  74  73 CALM      29.97F HX  89
EFFINGHAM*     CLOUDY    81  69  67 W6        29.99S HX  83
MT. VERNON     MOSUNNY   82  66  57 W6        29.97F HX  85
CENTRALIA*     PTSUNNY   83  70  63 NW6       29.97F HX  88
SALEM*         MOSUNNY   84  67  56 NW8       29.97F HX  87
METROPOLIS*    SUNNY     84  72  66 W3        29.98F HX  90
$$

ILZ067-068-072-073-078-083-087-091-302100-
SOUTHEAST ILLINOIS

CITY           SKY/WX    TMP DP  RH WIND       PRES   REMARKS
LAWRENCEVILLE  PTSUNNY   82  68  62 NW8       29.96F HX  85
FLORA*         PTSUNNY   85  67  54 NW5       29.97F HX  88
FAIRFIELD*     MOSUNNY   83  69  61 W5        29.95F HX  86
HARRISBURG*    MOSUNNY   84  71  65 W6        29.97F HX  89
ROBINSON*      MOSUNNY   80  68  65 W7        29.97S HX  83
CARMI*         PTSUNNY   84  71  65 SW5       29.95F HX  88
$$

ABBREVIATIONS USED IN REMARKS
   TC - TEMPERATURE IN CELSIUS
  WCI - WIND CHILL INDEX
   HX - HEAT INDEX
  VSB - VISIBILITY
$$




USA.gov is the U.S. government's official web portal to all federal, state and local government web resources and services.